Home > Weather > Ashgabat > Past weeks

Flag for Turkmenistan Past Weather in Ashgabat, Turkmenistan — Yesterday and Last 2 Weeks

Now
104 °F

Passing clouds.


Feels Like: 103 °F
Forecast: 83 / 105 °F
Wind: 7 mph from West

Location: Ashgabat

Current Time: Jul 1, 2016 at 8:28:22 PM

Latest Report: Jul 1, 2016 at 8:00 PM


Visibility: 6 mi

Pressure: 29.53 "Hg

Humidity: 20%

Dew Point: 55 °F

Location of AshgabatLocation

Past Weather in Ashgabat — Graph

°F

Ashgabat Temperature Yesterday

Maximum temperature yesterday: 109 °F (at 5:00 PM)
Minimum temperature yesterday: 77 °F (at 6:00 AM)
Average temperature yesterday: 95 °F

High & Low Weather Summary for the Past Weeks

 TemperatureHumidityPressure
High109 °F (Jun 30, 5:00 PM)57% (Jun 18, 5:00 AM)30.07 "Hg (Jun 18, 5:00 AM)
Low68 °F (Jun 23, 5:00 AM)8% (Jun 30, 5:00 PM)29.50 "Hg (Jul 1, 6:00 PM)
Average88 °F28%29.84 "Hg
* Reported Jun 16 7:00 PM — Jul 1 7:00 PM, Ashgabat, Weather by CustomWeather, © 2016

Note: Actual official high and low records may vary slightly from our data, if they occured in-between our weather recording intervals... More about our weather records

Advertising

Ashgabat Weather History for the Previous 24 Hours

Scroll right to see more
 ConditionsComfort  
Time TempWeatherWind HumidityBarometerVisibility
7:00 PM
Fri, Jul 1
108 °FPassing clouds.8 mph17%29.53 "HgN/A
6:00 PM108 °FPassing clouds.7 mph17%29.50 "HgN/A
5:00 PM108 °FPassing clouds.6 mph16%29.53 "HgN/A
4:00 PM108 °FPassing clouds.8 mph18%29.56 "HgN/A
3:00 PM106 °FPassing clouds.5 mph19%29.56 "HgN/A
2:00 PM106 °FScattered clouds.8 mph20%29.59 "HgN/A
1:00 PM102 °FPassing clouds.10 mph24%29.62 "HgN/A
12:00 PM100 °FSunny.10 mph25%29.62 "HgN/A
11:00 AM99 °FSunny.13 mph25%29.65 "HgN/A
10:00 AM97 °FSunny.13 mph32%29.65 "Hg6 mi
9:00 AM95 °FSunny.13 mph34%29.65 "HgN/A
8:00 AM93 °FSunny.8 mph32%29.65 "HgN/A
7:00 AM88 °FSunny.6 mph35%29.65 "HgN/A
6:00 AM88 °FPassing clouds.9 mph38%29.62 "HgN/A
5:00 AM86 °FClear.6 mph35%29.62 "HgN/A
4:00 AM88 °FClear.10 mph27%29.62 "HgN/A
3:00 AM86 °FClear.7 mph25%29.59 "HgN/A
2:00 AM88 °FClear.2 mph25%29.59 "Hg6 mi
1:00 AM90 °FClear.3 mph21%29.62 "HgN/A
12:00 AM91 °FClear.2 mph20%29.62 "HgN/A
11:00 PM
Thu, Jun 30
91 °FClear.5 mph20%29.65 "Hg6 mi
10:00 PM95 °FClear.7 mph18%29.65 "HgN/A
9:00 PM99 °FSunny.6 mph18%29.62 "Hg4 mi
8:00 PM102 °FSunny.8 mph14%29.62 "HgN/A
Weather by CustomWeather, © 2016

See weather overviewHow to use our weather pages